User: anonymous   Login
Location: Chaves
(41.7330°N, 7.4670°W)
Time: 07:43:52
(UTC+00:00)
Language:

ISS - Orbit

View from above orbital plane
View from above orbital plane
View from above satellite
View from above satellite

Ground track
Ground track

The orbit data is extracted from the following two-line orbital elements,

1 25544U 98067A   19316.59684697  .00016717  00000-0  10270-3 0  9045
2 25544  51.6414 345.4528 0006325 270.9648  89.0778 15.49993728 38272
Epoch (UTC): 12 November 2019 14:19:27
Eccentricity: 0.0006325
inclination: 51.6414°
perigee height: 412 km
apogee height: 421 km
right ascension of ascending node: 345.4528°
argument of perigee: 270.9648°
revolutions per day: 15.49993728
mean anomaly at epoch: 89.0778°
orbit number at epoch: 3827

The dashed part of the orbit path shows where the satellite is in the earth's shadow,  

DLR